www.pogodaiklimat.ru

АРХИВ ПОГОДЫ в Провиденсе

Время (UTC), дата Ветер
(напр.,м/с)
 
Видим.   Явления Облачность Т
(С)
Тd
(С)
f
(%)
Тe
(С)
Тes
(С)
Комфортность

P
(гПа)

Po
(гПа)
Тmin
(С)
Tmax
(С)
R
(мм)
SD
(см)
14:51 22.08 Ю  16 км    5/5 720 м
[верхняя] 
+27.8  +23.9  79  +38  +40  очень
душно 
1010.6           
15:51 22.08 ЮВ  16 км  слабый дождь  8/8 930 м
[верхняя] 
+27.8  +24.4  82  +39  +42  очень
душно 
1010.0  1008.2         
16:51 22.08 нст  16 км    8/5 1110 м
[верхняя] 
+30.6  +23.3  65  +41  +47  опасность
перегрева 
1010.0    +24.4  +30.6     
17:51 22.08 ЮВ  6
{9} 
16 км    8/8 1110 м
[средняя верхняя] 
+28.9  +23.9  74  +40  +41  очень
душно 
1010.0           
18:51 22.08 З  16 км    8/8 1320 м
[средняя верхняя] 
+32.2  +20.6  50  +39  +41  очень
душно 
1009.7           
19:51 22.08 СЗ  16 км    8/8 1500 м
[средняя верхняя] 
+31.1  +20.6  54  +38  +39  очень
душно 
1009.7  1007.9         
20:51 22.08 З  16 км    5/5 1500 м
[средняя верхняя] 
+31.1  +20.0  52  +38  +39  очень
душно 
1010.0  1008.2         
21:51 22.08 З  16 км    8/2 1500 м
[средняя верхняя] 
+29.4  +20.6  59  +36  +37  очень
душно 
1010.3  1008.6         
22:51 22.08 З  16 км  слабый дождь  8/2 1650 м
[средняя верхняя] 
+27.2  +23.9  82  +37  +38  очень
душно 
1010.5  1008.6  +27.2  +32.2     
23:51 22.08 З  16 км    8/8 1800 м
[средняя верхняя] 
+25.6  +21.7  79  +33  +33  очень
душно 
1011.2  1009.6         
00:51 23.08 ЮЗ  16 км    10/5 1650 м
[средняя] 
+25.0  +22.2  84  +32  +32  очень
душно 
1011.1  1009.3         
01:51 23.08 З  16 км    10/8 1500 м
[средняя] 
+25.0  +21.7  82  +32  +32  очень
душно 
1011.6  1009.9         
02:51 23.08 ЮЗ  16 км    10/8 1440 м
[средняя верхняя] 
+24.4  +21.7  85  +31  +31  очень
душно 
1012.1  1010.3         
03:51 23.08 З  16 км  слабый дождь  8/8 1440 м
[средняя] 
+23.3  +21.7  91  +32  +32  очень
душно 
1012.7  1011.0         
04:51 23.08 СЗ  16 км    10/0 3300 м
[средняя] 
+23.3  +21.7  91  +32  +32  очень
душно 
1012.0  1010.3  +23.3  +27.2     
05:51 23.08 СЗ  16 км    10/0 3300 м
[средняя] 
+22.8  +18.9  79  +29  +29  очень
душно 
1011.9  1010.3         
06:51 23.08 СЗ  16 км    8/0 2700 м
[средняя] 
+22.8  +13.9  57  +26  +26  жарко  1012.5  1010.6         
07:51 23.08 С  16 км  слабый дождь  10/2 1800 м
[средняя] 
+21.1  +15.0  68  +24  +24  комфорт  1012.7  1011.0         
08:51 23.08 С  16 км    10/0 2400 м
[средняя] 
+21.1  +13.3  61  +23  +23  комфорт  1013.3  1011.6         
09:51 23.08 С  16 км    8/2 750 м
[средняя] 
+20.6  +14.4  68  +24  +24  комфорт  1014.0  1012.3         
10:51 23.08 СЗ  16 км  слабый дождь  10/8 1290 м
[средняя] 
+20.6  +14.4  68  +24  +24  комфорт  1015.1  1013.3  +20.0  +23.3     
11:51 23.08 З  10 км  слабый дождь, дымка  10/0 2250 м
[средняя] 
+18.3  +16.1  87  +19  +20    1015.8  1014.0         
12:51 23.08 нст  16 км  слабый дождь  10/2 300 м
[средняя] 
+19.4  +16.7  84  +22  +24  комфорт  1015.5  1013.7         
13:51 23.08   16 км    10/2 300 м
[средняя] 
+20.0  +16.1  78  +22  +26  комфорт  1015.1  1013.3      2.0   
14:51 23.08 ЮЗ  16 км    10/2 300 м
[средняя верхняя] 
+20.6  +16.1  75  +24  +29  комфорт  1015.2  1013.3         
15:51 23.08 нст  16 км    10/2 300 м
[средняя верхняя] 
+23.3  +16.7  66  +28  +35  душно  1014.4  1012.6         
16:51 23.08 СЗ  16 км    10/2 300 м
[средняя верхняя] 
+24.4  +16.1  60  +28  +33  душно  1014.4  1012.6  +18.3  +25.0  2.0   
17:51 23.08 С  16 км    10/2 1200 м
[средняя верхняя] 
+25.0  +14.4  52  +28  +32  жарко  1014.3  1012.3         
18:51 23.08 З  16 км    10/5 1320 м
[средняя верхняя] 
+24.4  +15.0  56  +27  +29  жарко  1014.6  1013.0         
19:51 23.08 СЗ  16 км    8/5 1290 м
[средняя верхняя] 
+25.0  +15.6  56  +28  +30  жарко  1014.6  1013.0         
20:51 23.08 СЗ  16 км    10/2 1260 м
[средняя верхняя] 
+23.9  +14.4  55  +26  +28  жарко  1014.6  1012.6         
21:51 23.08 СЗ  16 км    10/2 1260 м
[средняя верхняя] 
+23.3  +12.8  52  +26  +27  жарко  1015.1  1013.3         
22:51 23.08 СЗ  16 км    10/2 1200 м
[средняя верхняя] 
+22.2  +13.9  59  +25  +25  комфорт  1015.0  1013.3  +22.2  +25.0     
23:51 23.08   16 км    10/2 1050 м
[средняя верхняя] 
+21.7  +15.0  66  +25  +25  комфорт  1015.7  1014.0         
00:51 24.08 С  16 км    5/2 1500 м
[средняя верхняя] 
+21.1  +15.0  68  +24  +24  комфорт  1015.9  1014.0         
01:51 24.08 С  16 км    2/2 1500 м
[средняя верхняя] 
+20.6  +12.2  59  +23  +23  комфорт  1016.5  1014.7         
02:51 24.08 С  16 км    2/2 1500 м
[средняя верхняя] 
+19.4  +12.2  63  +21  +21  комфорт  1017.3  1015.3         
03:51 24.08 С  16 км    ясно  +18.3  +11.7  65  +18  +18    1017.9  1016.0         
04:51 24.08 С  16 км    ясно  +17.2  +11.1  67  +17  +17    1017.9  1016.0  +17.2  +22.2     
05:51 24.08 С  16 км    ясно  +16.7  +10.6  67  +16  +16    1018.1  1016.4         
06:51 24.08 С  16 км    ясно  +16.1  +10.6  70  +15  +15    1018.3  1016.4         
07:51 24.08 С  16 км    ясно  +15.6  +10.6  72  +15  +15    1018.9  1017.0         
08:51 24.08 С  16 км    2/0 2250 м
[средняя верхняя] 
+15.0  +10.6  75  +14  +14    1019.2  1017.4         
09:51 24.08 С  16 км    2/0 2250 м
[средняя верхняя] 
+15.6  +10.6  72  +15  +15    1019.8  1018.0         
10:51 24.08 С  16 км    ясно  +17.2  +10.6  65  +16  +17    1020.4  1018.7  +15.0  +17.2     
11:51 24.08 С  16 км    2/0 4500 м
[средняя верхняя] 
+19.4  +11.1  59  +21  +22  комфорт  1020.6  1018.7         
12:51 24.08 С  16 км    2/0 7500 м
[верхняя] 
+20.6  +11.1  54  +23  +26  комфорт  1021.2  1019.4         
13:51 24.08 С  16 км    2/2 1200 м  +21.7  +11.1  51  +24  +29  комфорт  1021.3  1019.4         

 

Местоположение метеостанции Theodore Francis Green State Airport: широта 41.7225 долгота -71.4325 высота над уровнем моря 15 м.

В архиве по умолчанию представлена погода в Провиденсе за последние 1-2 суток. Обновление информации о фактической погоде в базе происходит ежечасно! Архивные данные за месяц целиком и за предыдущие месяцы Вы можете получить, выбрав интересующий диапазон дат из раскрывающегося списка и нажав кнопку "Ввод!".

Внимание! Архив погоды МЕТАР в базе сайта в настоящее время начинается c 1 января 2011 г. Нет смысла пытаться выбрать более раннюю дату.

Внимание! Время в таблицах - всемирное. Для получения местного времени необходимо прибавить поправку, которая в Провиденсе равна -5 ч.

Ветер - указаны скорость ветра в м/с и направление, откуда дует ветер: С - северный, СВ - северо-восточный, В - восточный, ЮВ - юго-восточный, Ю - южный, ЮЗ - юго-западный, З - западный, СЗ - северо-западный.
Видимость - горизонтальная дальность видимости в метрах или километрах. При видимости от 1 до 10 км при отсутствии осадков обычно наблюдается дымка, при ухудшении видимости до 1 км и менее - туман. В сухую погоду видимость может ухудшаться дымом, пылью или мглою.
Атмосферные явления - указаны явления, наблюдавшиеся в указанный момент времени.
Облачность - указаны через наклонную черту верхняя и нижняя облачность в баллах и высота нижней границы облаков в метрах. Внимание: облачность, как и прочие метеорологические величины в США измеряются автоматическими метеостанциями. Указанные значения в баллах носят условный характер и показывают процент времени, в течение которого, в среднем, лазерный луч высотомера отражался от облаков обратно.
T - Температура воздуха - температура, измеренная на высоте 2 м над землей.
Td - Температура точки росы - температура, при понижении до которой содержащийся в воздухе водяной пар достигнет насыщения.
f - Относительная влажность воздуха - влажноcть воздуха, измеренная на высоте 2 м над землей.
Te - Эффективная температура - температура, которую ощущает одетый по сезону человек в тени. Характеристика душности погоды. При расчете учитывается влияние влажности воздуха и скорости ветра на теплоощущения человека.
Tes - Эффективная температура на солнце - температура, которую ощущает человек, с поправкой на солнечный нагрев. Характеристика знойности погоды. Зависит от высоты солнца над горизонтом, облачности и скорости ветра. Ночью, в пасмурную погоду, а также при ветре 12 м/с и более поправка равна нулю.
P - Атмосферное давление - приведенное к уровню моря атмосферное давление.
Po - Атмосферное давление - измеренное на уровне метеостанции атмосферное давление.
Tmin - Минимальная температура - минимум температуры воздуха на высоте 2 м над землей.
Tmax - Максимальная температура - максимум температуры воздуха на высоте 2 м над землей.
R - Количество осадков - Количество выпавших осадков за 3 или 6 часов, мм.
SD - Снежный покров - Высота снежного покрова, см.